Regional Weather Roundup
Issued by NWS Newport/Morehead, NC

Home | Current Version | Previous Version | Text Only | Print | Product List | Glossary On
Versions: 1 2 3 4 5 6 7 8 9 10 11 12 13 14 15 16 17 18 19 20 21 22 23 24 25 26 27 28 29 30 31 32 33 34 35 36 37 38 39 40 41 42 43 44 45 46 47 48 49 50
000
ASUS42 KMHX 062128
RWRMHX
WEATHER ROUNDUP FOR EASTERN NORTH CAROLINA
NATIONAL WEATHER SERVICE NEWPORT/MOREHEAD CITY NC
400 PM EST FRI MAR 06 2015

NOTE: "FAIR" INDICATES FEW OR NO CLOUDS BELOW 12,000 FEET
WITH NO SIGNIFICANT WEATHER AND/OR OBSTRUCTIONS TO VISIBILITY

NCZ015>017-031-032-045>047-102-103-062200-
NORTH COAST

CITY           SKY/WX    TMP DP  RH WIND       PRES   REMARKS
EDENTON        SUNNY     35  18  51 NE9       30.43S
ELIZABETH CITY SUNNY     32  20  61 N13       30.44S
KITTY HAWK     CLOUDY    29  24  81 N10G24    30.40F WCI  19
MANTEO         CLOUDY    28  23  81 N17G28    30.42F WCI  16

$$

NCZ045>047-081-094-103-104-062200-
CENTRAL COAST

CITY           SKY/WX    TMP DP  RH WIND       PRES   REMARKS
FRISCO         CLOUDY    30  26  85 N13G28    30.37F WCI  20
SWANQUARTER      N/A     34 N/A N/A N3G14     30.36S

$$

NCZ095-097-098-100-101-062200-
SOUTHERN COAST

CITY           SKY/WX    TMP DP  RH WIND       PRES   REMARKS
BEAUFORT       CLOUDY    36  20  52 N16       30.38S
CEDAR ISLAND     N/A     34 N/A N/A N12G23    30.41S
JACKSONVILLE   CLOUDY    41  23  48 NW14      30.38S
PINEY ISLAND     N/A    N/A N/A N/A MISG      30.39S
WILMINGTON     CLOUDY    43  24  47 N12       30.37S


$$

NCZ011>013-027>030-043-044-078>080-089-090>093-098-062200-
COASTAL PLAIN

CITY           SKY/WX    TMP DP  RH WIND       PRES   REMARKS
AHOSKIE        SUNNY     33  15  48 N7        30.44F
CLINTON        SUNNY     39  19  43 N6        30.42S
ELIZABETHTOWN  SUNNY     41  18  39 N6        30.39S
GOLDSBORO      SUNNY     38  21  51 N8        30.40S
GREENVILLE     SUNNY     37  19  48 N7        30.42S
HAVELOCK       CLOUDY    38  20  48 N13       30.39F
KENANSVILLE    SUNNY     38  18  43 N8        30.42R
KINSTON        SUNNY     37  21  52 N9        30.42F
NEW BERN       SUNNY     40  20  44 N9        30.40S
RICHLANDS      SUNNY     39  19  45 N9        30.40S
ROCKY MOUNT    SUNNY     37  14  38 N10       30.43F
WASHINGTON     SUNNY     36  19  50 N10       30.42S
WHITEVILLE     MOSUNNY   43  20  38 N7        30.38S

$$

AMZ130-135-150-152-154-156-158-170-250-252-270-ANZ085-086-088-633-658-670-062200-
MARINE OBSERVATIONS

STATION/POSITION TIME  TEMP    WIND        PRES    WAVE   SWELL
                       AIR SEA DIR/SP/G            HT/PER HT/PER
                 (UTC) (F)     (DEG/KT/KT) (MB)    (FT/S) (FT/S)
CHESAPEAKE LIGHT 2100   26     360/ 18/ 20 1031.6
64 E VA BEACH    2050   36 51  360/ 19/ 25 1028.2    8/ 8
DUCK             2000   26 35  360/ 23/ 26 1029.2
2 E DUCK         2111      35                N/A     6/ 8   2/11
10 NE DUCK       2022      37                N/A     8/ 8   2/11
OREGON INLET     2000   29 38  350/ 18/ 23 1029.5
HATTERAS CG      2000   32 43  360/ 25/ 29 1028.7
CAPE LOOKOUT     2100          360/ 17/ 21 1028.3
BEAUFORT LAB     2000   36 47   10/ 14/ 19 1027.9
27 SE WRIGHTSVLE NOT AVBL
5 SE WRIGHTSVLE  NOT AVBL
225 S CAPE HAT   2050   64 72   50/ 17/ 21 1021.9    9/10   7/10
41 SE CHARLESTON 2050   42 67   20/ 21/ 27 1026.8    9/ 8

$$



USA.gov is the U.S. government's official web portal to all federal, state and local government web resources and services.